[[{"header":{"parameterUnit":"m.s-1","parameterCategory":2,"la1":30.2991,"la2":30.254,"lo1":-89.0895,"lo2":-89.0444,"dy":0.0017,"dx":0.0017,"nx":28,"ny":28,"refTime":"2024-04-29T21:00:00:Z","depth":"0","parameterNumber":2,"parameterNumberName":"U-component_of_CURRENTS"},"data":[0,0,0,0,0,0,0,0,0,0,0,0,0,0,0,0,0,0,0,0,0,0,0,0,0,0,0,0,0,0,0,0,0,0,0,0,0,0,0,0,0,0,0,0,0,0,0,0,0,0,0,0,0,0,0,0,0,0,-0.248,-0.2481,0,-0.257,-0.257,-0.2571,-0.2551,-0.2549,-0.2548,-0.2546,-0.2559,-0.2561,-0.2563,0,0,0,0,0,0,0,0,0,0,0,0,0,-0.2323,-0.2326,-0.2479,-0.2481,-0.2482,-0.2569,-0.257,-0.2571,-0.2551,-0.2549,-0.2547,-0.2546,-0.2559,-0.2561,-0.2563,0,0,0,0,0,0,0,0,0,0,0,0,0,-0.2398,-0.2327,-0.2479,-0.2484,-0.2485,-0.2569,-0.257,-0.2572,-0.2552,-0.2549,-0.2547,-0.2545,-0.2558,-0.256,-0.2563,-0.2625,0,0,-0.2571,-0.2572,0,0,0,0,0,0,0,0,-0.2394,-0.2404,-0.2482,-0.2484,-0.2486,-0.2548,-0.252,-0.2587,-0.2552,-0.2524,-0.2546,-0.2544,-0.2551,-0.2554,-0.2575,-0.2626,-0.2626,-0.2571,-0.2573,-0.2574,-0.2575,0,0,0,0,0,0,0,-0.2389,-0.24,-0.2513,-0.2484,-0.2486,-0.2493,-0.2501,-0.2533,-0.2547,-0.2527,-0.2526,-0.254,-0.2551,-0.2572,-0.2575,-0.2627,-0.2571,-0.2574,-0.2575,-0.2576,-0.2765,-0.2769,0,0,0,0,0,0,-0.2383,-0.2395,-0.251,-0.2516,-0.2435,-0.2498,-0.2506,-0.2529,-0.2548,-0.255,-0.2542,-0.2538,-0.2569,-0.2572,-0.2575,-0.2656,-0.2574,-0.2577,-0.2578,-0.2762,-0.2766,-0.277,0,0,0,0,0,0,-0.2379,-0.2393,-0.2507,-0.2458,-0.2473,-0.2503,-0.2529,-0.2532,-0.2547,-0.2561,-0.256,-0.2552,-0.2567,-0.2571,-0.263,-0.2655,-0.2578,-0.258,-0.2758,-0.2763,-0.2768,-0.2813,0,0,0,0,0,0,-0.2375,-0.2391,-0.2405,-0.2458,-0.2476,-0.2574,-0.2531,-0.2535,-0.256,-0.2557,-0.257,-0.2569,-0.2566,-0.2626,-0.2632,-0.2658,-0.2582,-0.2754,-0.276,-0.2766,-0.2808,-0.2819,-0.283,0,0,0,0,0,-0.2369,-0.2409,-0.2406,-0.242,-0.2495,-0.2577,-0.2588,-0.2598,-0.2563,-0.2596,-0.2607,-0.2568,-0.2671,-0.2632,-0.2638,-0.2664,-0.275,-0.2758,-0.2766,-0.2803,-0.2817,-0.2829,0,0,0,0,0,0,-0.2348,-0.2413,-0.241,-0.2466,-0.252,-0.2574,-0.2605,-0.2604,-0.264,-0.2628,-0.2617,-0.2621,-0.268,-0.2684,-0.2641,-0.2745,-0.2703,-0.2712,-0.2729,-0.2742,-0.2753,-0.2718,-0.2584,0,0,0,0,0,-0.2351,-0.2396,-0.2457,-0.25,-0.253,-0.2563,-0.2593,-0.2606,-0.2645,-0.2656,-0.2665,-0.2686,-0.2723,-0.2739,-0.2775,-0.2836,-0.2789,-0.286,-0.2871,-0.288,-0.2861,-0.2811,-0.2813,-0.2795,-0.2795,-0.2795,0,0,-0.2352,-0.2395,-0.2417,-0.2499,-0.2535,-0.2608,-0.2576,-0.2637,-0.2683,-0.2654,-0.2715,-0.2726,-0.2751,-0.2818,-0.2844,-0.2819,-0.2872,-0.289,-0.2897,-0.2872,-0.2819,-0.282,-0.282,-0.28,-0.28,-0.2799,0,0,-0.2399,-0.2419,-0.2481,-0.2537,-0.2609,-0.264,-0.2657,-0.272,-0.2731,-0.2808,-0.2789,-0.281,-0.2887,-0.289,-0.2905,-0.3003,-0.2933,-0.303,-0.3049,-0.3002,-0.3001,-0.2999,-0.2968,-0.2963,-0.3032,-0.3032,-0.3032,0,-0.2391,-0.2476,-0.2512,-0.2594,-0.2634,-0.2655,-0.2727,-0.2768,-0.2836,-0.2837,-0.2838,-0.2899,-0.2914,-0.2952,-0.2993,-0.3018,-0.2987,-0.2987,-0.3008,-0.3005,-0.3002,-0.2971,-0.2964,-0.3035,-0.3035,-0.3035,-0.3034,0,-0.25,-0.2559,-0.2604,-0.2704,-0.2758,-0.2825,-0.2883,-0.2918,-0.2924,-0.2943,-0.2978,-0.3,-0.3014,-0.3043,-0.3052,-0.3055,-0.304,-0.3021,-0.2954,-0.3005,-0.2972,-0.2964,-0.304,-0.3039,-0.3038,-0.3037,0,0,-0.2483,-0.2644,-0.2655,-0.2699,-0.2812,-0.2859,-0.2938,-0.2993,-0.2999,-0.3054,-0.3053,-0.3118,-0.3079,-0.3094,-0.3091,-0.3064,-0.3036,-0.3042,-0.3038,-0.2975,-0.294,-0.289,-0.2876,-0.3011,-0.301,-0.3009,-0.2931,0,-0.2543,-0.2691,-0.2758,-0.2867,-0.2934,-0.2972,-0.3031,-0.3075,-0.3095,-0.3108,-0.3098,-0.3114,-0.3116,-0.3106,-0.3084,-0.3046,-0.3015,-0.3059,-0.293,-0.2926,-0.2843,-0.2865,-0.2754,-0.2672,-0.2923,-0.2922,-0.2921,0,-0.2615,-0.2699,-0.2821,-0.2913,-0.2941,-0.3001,-0.3038,-0.3098,-0.3122,-0.3129,-0.3124,-0.3117,-0.3102,-0.3086,-0.3015,-0.3043,-0.2993,-0.2959,-0.2955,-0.2874,-0.286,-0.2661,-0.2647,-0.2634,-0.2908,-0.2909,-0.291,0,-0.2566,-0.2723,-0.2802,-0.2847,-0.2973,-0.2995,-0.3039,-0.3083,-0.3101,-0.3119,-0.3116,-0.3101,-0.3075,-0.3019,-0.2971,-0.2983,-0.2878,-0.2877,-0.2783,-0.278,-0.2641,-0.2628,-0.2558,-0.2799,-0.28,-0.28,-0.28,0,-0.2591,-0.2645,-0.2777,-0.2822,-0.2863,-0.296,-0.2979,-0.302,-0.306,-0.3058,-0.3099,-0.3081,-0.3051,-0.3003,-0.2957,-0.2846,-0.2857,-0.2773,-0.2746,-0.2663,-0.2653,-0.2598,-0.2616,-0.2797,-0.2797,-0.2798,-0.2799,0,-0.2521,-0.263,-0.27,-0.2819,-0.2846,-0.2861,-0.2935,-0.2945,-0.3003,-0.2999,-0.3003,-0.3042,-0.2981,-0.2949,-0.2856,-0.2809,-0.2669,-0.2678,-0.2597,-0.2562,-0.2459,-0.2485,-0.2366,-0.2306,-0.2551,-0.2549,-0.2547,0,-0.2501,-0.254,-0.265,-0.267,-0.2718,-0.2761,-0.2786,-0.2883,-0.2898,-0.2961,-0.2945,-0.2931,-0.289,-0.2774,-0.2677,-0.257,-0.2574,-0.2424,-0.2419,-0.2424,-0.2434,-0.2461,-0.2421,-0.2269,-0.2265,-0.2262,-0.2259,0,-0.242,-0.2452,-0.2505,-0.2549,-0.2583,-0.2615,-0.2663,-0.2682,-0.2779,-0.2796,-0.281,-0.2797,-0.2713,-0.2569,-0.246,-0.2383,-0.2367,-0.2357,-0.2362,-0.22,-0.2221,-0.2159,-0.238,-0.2232,-0.2235,-0.2237,-0.2238,-0.2239,-0.2312,-0.2313,-0.2373,-0.2391,-0.2431,-0.2441,-0.241,-0.2483,-0.2497,-0.2487,-0.2591,-0.2521,-0.2472,-0.23,-0.2241,-0.2098,-0.215,-0.2033,-0.2063,-0.2091,-0.2026,-0.2204,-0.2032,-0.2034,-0.2035,-0.2036,-0.2037,0,-0.2173,-0.2194,-0.221,-0.2229,-0.2196,-0.227,-0.2294,-0.2237,-0.2201,-0.2253,-0.223,-0.218,-0.2062,-0.2038,-0.1916,-0.1833,-0.1802,-0.1799,-0.1806,-0.1778,-0.191,-0.1892,-0.1682,-0.1682,-0.1682,-0.1682,-0.1682,-0.1682,-0.2104,-0.2072,-0.2084,-0.1981,-0.1982,-0.188,-0.1856,-0.1812,-0.1808,-0.1744,-0.1733,-0.1761,-0.1778,-0.1896,-0.1795,-0.1715,-0.1689,-0.1627,-0.1674,-0.1781,-0.1806,-0.183,-0.1817,-0.1595,-0.1595,-0.1474,-0.1473,-0.1473]},{"header":{"parameterUnit":"m.s-1","parameterCategory":2,"la1":30.2991,"la2":30.254,"lo1":-89.0895,"lo2":-89.0444,"dy":0.0017,"dx":0.0017,"nx":28,"ny":28,"refTime":"2024-04-29T21:00:00:Z","depth":"0","parameterNumber":3,"parameterNumberName":"V-component_of_CURRENTS"},"data":[0,0,0,0,0,0,0,0,0,0,0,0,0,0,0,0,0,0,0,0,0,0,0,0,0,0,0,0,0,0,0,0,0,0,0,0,0,0,0,0,0,0,0,0,0,0,0,0,0,0,0,0,0,0,0,0,0,0,-0.0117,-0.0115,0,0.0002,0.0003,0.0005,0.0069,0.0069,0.0069,0.0069,0.0233,0.0237,0.0242,0,0,0,0,0,0,0,0,0,0,0,0,0,-0.0193,-0.0193,-0.0117,-0.0115,-0.0114,0.0001,0.0003,0.0005,0.0069,0.0069,0.0069,0.0069,0.0232,0.0237,0.0242,0,0,0,0,0,0,0,0,0,0,0,0,0,-0.0125,-0.0193,-0.0117,-0.0069,-0.0064,0.0001,0.0003,0.0006,0.0069,0.0069,0.0069,0.0069,0.023,0.0236,0.0243,0.0284,0,0,0.0263,0.0266,0,0,0,0,0,0,0,0,-0.0129,-0.0122,-0.0078,-0.0073,-0.0067,0.0019,0.0036,0.01,0.0069,0.0021,0.0069,0.0069,0.0165,0.0177,0.0201,0.0291,0.0298,0.0263,0.0267,0.027,0.0272,0,0,0,0,0,0,0,-0.0134,-0.0126,-0.0068,-0.0076,-0.007,-0.0022,-0.0013,0.0049,0.0094,0.0025,0.0029,0.004,0.0168,0.0194,0.0205,0.0301,0.0263,0.0269,0.0273,0.0276,0.0494,0.0496,0,0,0,0,0,0,-0.0157,-0.0131,-0.0072,-0.0065,-0.01,-0.0021,-0.0011,-0.0007,0.0092,0.0106,0.004,0.0042,0.0183,0.0198,0.0211,0.0293,0.027,0.0276,0.028,0.0492,0.0495,0.0497,0,0,0,0,0,0,-0.0159,-0.0153,-0.0076,-0.0096,-0.0083,-0.0021,-0.0016,-0.0005,0.0021,0.0102,0.0118,0.0052,0.0184,0.0202,0.0278,0.0298,0.0279,0.0285,0.049,0.0493,0.0496,0.0438,0,0,0,0,0,0,-0.0162,-0.0155,-0.016,-0.0098,-0.0083,-0.0045,-0.0016,-0.0002,0.0026,0.0031,0.0119,0.0134,0.0185,0.0268,0.0285,0.0307,0.029,0.0488,0.0491,0.0495,0.0437,0.0438,0.0439,0,0,0,0,0,-0.0165,-0.0175,-0.0161,-0.0154,-0.0093,-0.0045,-0.0033,0.0013,0.0026,0.0036,0.0106,0.0131,0.0303,0.0275,0.0294,0.0318,0.0486,0.049,0.0494,0.0437,0.0438,0.0439,0,0,0,0,0,0,-0.0212,-0.0168,-0.0151,-0.0148,-0.0104,-0.0035,-0.0025,0.0008,0.007,0.0074,0.0151,0.0172,0.0247,0.0296,0.0264,0.0396,0.04,0.0409,0.035,0.0352,0.0353,0.0327,0.0296,0,0,0,0,0,-0.0226,-0.0224,-0.0168,-0.0167,-0.0149,-0.0089,-0.0065,-0.0032,0.003,0.0056,0.012,0.02,0.0281,0.0323,0.0394,0.0463,0.0493,0.0496,0.0496,0.0496,0.0492,0.0555,0.056,0.051,0.051,0.051,0,0,-0.0244,-0.0221,-0.0219,-0.0176,-0.0141,-0.0113,-0.0074,-0.0044,-0.0009,0.0065,0.0128,0.0199,0.0299,0.0379,0.0417,0.0421,0.0528,0.0502,0.0501,0.0497,0.056,0.0564,0.0568,0.0513,0.0513,0.0512,0,0,-0.0282,-0.0259,-0.027,-0.0233,-0.0187,-0.014,-0.0136,-0.0068,-0.0027,0.0042,0.0112,0.0195,0.0305,0.0388,0.0445,0.0496,0.0525,0.052,0.0508,0.0568,0.0572,0.0575,0.0609,0.0616,0.0525,0.0525,0.0525,0,-0.0307,-0.0311,-0.0264,-0.0256,-0.0229,-0.0158,-0.0149,-0.009,-0.0002,0.0038,0.0053,0.0236,0.0315,0.0432,0.0455,0.0496,0.052,0.0487,0.0565,0.0569,0.0574,0.0608,0.0616,0.0523,0.0523,0.0523,0.0523,0,-0.0345,-0.0342,-0.0343,-0.0308,-0.0268,-0.0251,-0.0165,-0.0119,-0.0063,0.0002,0.0111,0.0224,0.033,0.038,0.0436,0.0523,0.0525,0.0548,0.0547,0.0574,0.061,0.062,0.0519,0.052,0.0521,0.0521,0,0,-0.0413,-0.0382,-0.038,-0.0378,-0.0295,-0.0271,-0.0203,-0.0121,-0.0082,0.002,0.0082,0.0241,0.0291,0.036,0.0445,0.0513,0.0571,0.0538,0.0542,0.0545,0.0679,0.0709,0.0723,0.0595,0.0597,0.0599,0.0686,0,-0.0458,-0.0477,-0.0428,-0.0421,-0.042,-0.0323,-0.0265,-0.0175,-0.0089,-0.001,0.0127,0.0215,0.029,0.0335,0.0418,0.0537,0.0595,0.0543,0.0677,0.0681,0.0683,0.0736,0.0769,0.0852,0.0695,0.0697,0.0698,0,-0.0506,-0.0514,-0.0529,-0.0488,-0.0476,-0.0445,-0.0348,-0.0289,-0.0143,-0.0079,0.0037,0.0137,0.028,0.0319,0.0521,0.0478,0.0569,0.0653,0.0658,0.0713,0.073,0.0808,0.0876,0.103,0.0713,0.0712,0.0711,0,-0.0587,-0.0577,-0.0599,-0.0583,-0.0519,-0.0495,-0.0445,-0.0313,-0.0264,-0.0128,-0.0083,0.0092,0.0176,0.0324,0.0519,0.0511,0.0719,0.0729,0.084,0.0841,0.0912,0.0918,0.1125,0.0849,0.0849,0.0848,0.0848,0,-0.0653,-0.0668,-0.0646,-0.0657,-0.0668,-0.0581,-0.0553,-0.0476,-0.0362,-0.0306,-0.0137,-0.0052,0.0178,0.0338,0.0497,0.0708,0.0704,0.0847,0.0878,0.0894,0.0897,0.1067,0.111,0.0852,0.0851,0.085,0.085,0,-0.0734,-0.0721,-0.0752,-0.0721,-0.0712,-0.0718,-0.0647,-0.0619,-0.0501,-0.0425,-0.0388,-0.0161,0.0058,0.0291,0.0543,0.0676,0.0966,0.094,0.0934,0.0963,0.1194,0.123,0.143,0.1521,0.1067,0.1068,0.107,0,-0.0778,-0.0806,-0.0821,-0.0848,-0.0839,-0.083,-0.0815,-0.0707,-0.0664,-0.0481,-0.0447,-0.022,-0.0022,0.0368,0.0646,0.0927,0.1042,0.1095,0.1099,0.1229,0.1292,0.1308,0.1371,0.1166,0.1168,0.1169,0.1171,0,-0.086,-0.0865,-0.0896,-0.0957,-0.0972,-0.0979,-0.0943,-0.0931,-0.0788,-0.0691,-0.0508,-0.0335,0.0069,0.0446,0.0807,0.0967,0.1201,0.1133,0.129,0.141,0.1422,0.1515,0.1063,0.1185,0.1183,0.1182,0.1181,0.1181,-0.0915,-0.0966,-0.1008,-0.106,-0.109,-0.1104,-0.1098,-0.1034,-0.0956,-0.0771,-0.0574,-0.0247,0.0287,0.0829,0.1011,0.1387,0.1331,0.1496,0.1532,0.1541,0.163,0.1192,0.1334,0.1333,0.1333,0.1332,0.1332,0,-0.0982,-0.1034,-0.11,-0.1159,-0.1205,-0.1187,-0.1161,-0.1112,-0.102,-0.0791,-0.0559,0.0114,0.0621,0.1086,0.1611,0.1793,0.1831,0.1876,0.1929,0.1979,0.1629,0.1637,0.1824,0.1823,0.1823,0.1823,0.1823,0.1823,-0.1019,-0.1107,-0.1144,-0.1239,-0.1274,-0.1296,-0.128,-0.1178,-0.0998,-0.06,-0.0193,0.0176,0.0858,0.1685,0.2155,0.2178,0.234,0.2299,0.2395,0.2171,0.2138,0.2108,0.2131,0.2418,0.2418,0.2749,0.2753,0.2755]}],[{"header":{"parameterUnit":"m.s-1","parameterCategory":2,"la1":30.2991,"la2":30.254,"lo1":-89.0895,"lo2":-89.0444,"dy":0.0017,"dx":0.0017,"nx":28,"ny":28,"refTime":"2024-04-29T21:00:00:Z","depth":"2","parameterNumber":2,"parameterNumberName":"U-component_of_CURRENTS"},"data":[0,0,0,0,0,0,0,0,0,0,0,0,0,0,0,0,0,0,0,0,0,0,0,0,0,0,0,0,0,0,0,0,0,0,0,0,0,0,0,0,0,0,0,0,0,0,0,0,0,0,0,0,0,0,0,0,0,0,-0.2218,-0.2219,0,-0.228,-0.228,-0.2281,-0.2268,-0.2267,-0.2266,-0.2265,-0.2264,-0.2265,-0.2266,0,0,0,0,0,0,0,0,0,0,0,0,0,-0.2105,-0.2107,-0.2218,-0.2219,-0.222,-0.228,-0.228,-0.2281,-0.2268,-0.2267,-0.2266,-0.2265,-0.2264,-0.2265,-0.2266,0,0,0,0,0,0,0,0,0,0,0,0,0,-0.2157,-0.2108,-0.2218,-0.2223,-0.2224,-0.2279,-0.228,-0.2281,-0.2268,-0.2267,-0.2265,-0.2264,-0.2263,-0.2265,-0.2266,-0.2301,0,0,-0.227,-0.227,0,0,0,0,0,0,0,0,-0.2154,-0.2161,-0.2221,-0.2223,-0.2224,-0.2267,-0.224,-0.2285,-0.2268,-0.2249,-0.2265,-0.2263,-0.2262,-0.2263,-0.2275,-0.2301,-0.2301,-0.227,-0.227,-0.2271,-0.2271,0,0,0,0,0,0,0,-0.2151,-0.2158,-0.224,-0.2222,-0.2224,-0.2227,-0.2233,-0.2249,-0.2259,-0.225,-0.225,-0.2261,-0.2261,-0.2274,-0.2275,-0.2301,-0.227,-0.2271,-0.2272,-0.2272,-0.2415,-0.2417,0,0,0,0,0,0,-0.2149,-0.2155,-0.2238,-0.2242,-0.2188,-0.223,-0.2236,-0.2252,-0.226,-0.2262,-0.2262,-0.226,-0.2273,-0.2273,-0.2275,-0.2345,-0.2271,-0.2272,-0.2273,-0.2412,-0.2415,-0.2419,0,0,0,0,0,0,-0.2146,-0.2156,-0.2236,-0.2201,-0.2212,-0.2234,-0.2252,-0.2254,-0.2267,-0.2271,-0.227,-0.2273,-0.2271,-0.2273,-0.2314,-0.2343,-0.2273,-0.2274,-0.2408,-0.2413,-0.2417,-0.2467,0,0,0,0,0,0,-0.2143,-0.2155,-0.2166,-0.2202,-0.2214,-0.2284,-0.2254,-0.2257,-0.2277,-0.2275,-0.228,-0.2278,-0.2271,-0.2312,-0.2315,-0.2344,-0.2275,-0.2404,-0.241,-0.2415,-0.2462,-0.2473,-0.2482,0,0,0,0,0,-0.2139,-0.2167,-0.2166,-0.2176,-0.2228,-0.2286,-0.2293,-0.2301,-0.2279,-0.2303,-0.231,-0.2278,-0.235,-0.2316,-0.2318,-0.2348,-0.2401,-0.2408,-0.2415,-0.2457,-0.2471,-0.2482,0,0,0,0,0,0,-0.2124,-0.217,-0.2169,-0.2208,-0.2248,-0.2285,-0.2307,-0.2308,-0.2333,-0.2326,-0.2314,-0.2315,-0.2362,-0.2361,-0.2323,-0.2412,-0.2372,-0.238,-0.2403,-0.2416,-0.2426,-0.2399,-0.2276,0,0,0,0,0,-0.2126,-0.2155,-0.2201,-0.2231,-0.2254,-0.2278,-0.2299,-0.2311,-0.2338,-0.2346,-0.2353,-0.2369,-0.2396,-0.2408,-0.2432,-0.2479,-0.2439,-0.2505,-0.2515,-0.2524,-0.2508,-0.2474,-0.2477,-0.2441,-0.2441,-0.2441,0,0,-0.2126,-0.2156,-0.217,-0.223,-0.2256,-0.2308,-0.2288,-0.2333,-0.237,-0.2344,-0.2392,-0.2403,-0.2419,-0.2473,-0.2494,-0.2471,-0.2522,-0.2532,-0.2539,-0.2518,-0.2481,-0.2483,-0.2486,-0.2446,-0.2445,-0.2444,0,0,-0.2153,-0.2171,-0.221,-0.2253,-0.2307,-0.2331,-0.2346,-0.2394,-0.2408,-0.2467,-0.2455,-0.2477,-0.2533,-0.2538,-0.255,-0.2634,-0.2577,-0.266,-0.2685,-0.2653,-0.2653,-0.2653,-0.2627,-0.2624,-0.2664,-0.2665,-0.2665,0,-0.2147,-0.2202,-0.2231,-0.2288,-0.232,-0.2343,-0.2394,-0.2429,-0.2483,-0.249,-0.2493,-0.2549,-0.2558,-0.2595,-0.2634,-0.265,-0.2627,-0.2628,-0.2659,-0.2659,-0.2658,-0.263,-0.2627,-0.2668,-0.2667,-0.2667,-0.2667,0,-0.2213,-0.2255,-0.2285,-0.2357,-0.2401,-0.245,-0.2503,-0.2538,-0.2553,-0.2573,-0.2615,-0.2633,-0.2652,-0.2678,-0.2684,-0.27,-0.2686,-0.267,-0.2611,-0.2663,-0.2633,-0.2628,-0.2672,-0.2671,-0.267,-0.267,0,0,-0.2189,-0.2305,-0.2312,-0.2346,-0.2436,-0.2474,-0.2542,-0.2594,-0.2611,-0.2663,-0.2677,-0.2734,-0.2716,-0.2729,-0.2732,-0.2718,-0.2706,-0.2701,-0.2698,-0.2646,-0.264,-0.2587,-0.2576,-0.2692,-0.2691,-0.2691,-0.2627,0,-0.2221,-0.2319,-0.2375,-0.2454,-0.2502,-0.2549,-0.2604,-0.2653,-0.2683,-0.271,-0.2716,-0.2741,-0.2746,-0.2751,-0.274,-0.2714,-0.2693,-0.2725,-0.2623,-0.2619,-0.254,-0.2568,-0.2387,-0.2311,-0.2622,-0.2621,-0.262,0,-0.2256,-0.2315,-0.2399,-0.2481,-0.2506,-0.256,-0.2614,-0.267,-0.2714,-0.2735,-0.275,-0.2755,-0.2759,-0.2748,-0.2702,-0.2725,-0.2686,-0.266,-0.2656,-0.2575,-0.2555,-0.2309,-0.2289,-0.2611,-0.2611,-0.2612,-0.2613,0,-0.2203,-0.2319,-0.2375,-0.2412,-0.2522,-0.2554,-0.2603,-0.2664,-0.2692,-0.2736,-0.2748,-0.2755,-0.2748,-0.2709,-0.2676,-0.2685,-0.2609,-0.2605,-0.2516,-0.2512,-0.2319,-0.23,-0.2548,-0.2549,-0.2549,-0.2549,-0.2549,0,-0.2201,-0.224,-0.2354,-0.2385,-0.2431,-0.2523,-0.256,-0.2612,-0.2671,-0.2686,-0.2742,-0.2742,-0.2736,-0.2704,-0.2668,-0.2576,-0.2594,-0.251,-0.2486,-0.2339,-0.2323,-0.2549,-0.255,-0.2546,-0.2547,-0.2547,-0.2548,0,-0.2126,-0.2212,-0.2267,-0.2377,-0.2408,-0.2433,-0.2524,-0.2548,-0.2624,-0.2644,-0.2657,-0.2716,-0.2679,-0.2661,-0.2594,-0.2549,-0.2478,-0.2437,-0.2276,-0.2234,-0.2406,-0.2412,-0.2324,-0.2321,-0.2319,-0.2317,-0.2315,0,-0.2095,-0.2121,-0.2222,-0.2247,-0.2295,-0.2351,-0.2389,-0.2497,-0.2523,-0.2612,-0.2608,-0.262,-0.2592,-0.2503,-0.2419,-0.2327,-0.2403,-0.212,-0.21,-0.2395,-0.238,-0.2389,-0.2397,-0.1873,-0.1868,-0.1864,-0.186,0,-0.2009,-0.2043,-0.2086,-0.2135,-0.2183,-0.2221,-0.2286,-0.2307,-0.2421,-0.2453,-0.2485,-0.2482,-0.2424,-0.2258,-0.2165,-0.2088,-0.2126,-0.2034,-0.2348,-0.1974,-0.1968,-0.1956,-0.1978,-0.1824,-0.1827,-0.183,-0.1832,-0.1834,-0.1915,-0.1913,-0.1966,-0.1995,-0.2048,-0.2067,-0.2045,-0.2125,-0.2149,-0.2161,-0.2269,-0.2194,-0.2185,-0.1939,-0.1843,-0.1759,-0.1895,-0.1806,-0.1819,-0.1836,-0.1811,-0.1803,-0.1623,-0.1626,-0.1628,-0.163,-0.1631,0,-0.1785,-0.1803,-0.1824,-0.1853,-0.1839,-0.1918,-0.1949,-0.1898,-0.1874,-0.1924,-0.1918,-0.1718,-0.1624,-0.1615,-0.1433,-0.1409,-0.1389,-0.135,-0.1326,-0.1362,-0.1395,-0.1348,-0.1037,-0.1035,-0.1034,-0.1032,0,0,-0.1721,-0.1688,-0.1698,-0.1626,-0.1646,-0.1571,-0.1552,-0.1509,-0.1499,-0.1425,-0.1386,-0.1508,-0.1558,-0.1294,-0.1242,-0.1112,-0.1221,-0.1053,-0.1526,-0.1532,-0.1562,-0.1651,-0.162,0,0,0,0,0]},{"header":{"parameterUnit":"m.s-1","parameterCategory":2,"la1":30.2991,"la2":30.254,"lo1":-89.0895,"lo2":-89.0444,"dy":0.0017,"dx":0.0017,"nx":28,"ny":28,"refTime":"2024-04-29T21:00:00:Z","depth":"2","parameterNumber":3,"parameterNumberName":"V-component_of_CURRENTS"},"data":[0,0,0,0,0,0,0,0,0,0,0,0,0,0,0,0,0,0,0,0,0,0,0,0,0,0,0,0,0,0,0,0,0,0,0,0,0,0,0,0,0,0,0,0,0,0,0,0,0,0,0,0,0,0,0,0,0,0,-0.0218,-0.0217,0,-0.0126,-0.0125,-0.0123,-0.0053,-0.0053,-0.0052,-0.0052,0.0086,0.009,0.0093,0,0,0,0,0,0,0,0,0,0,0,0,0,-0.027,-0.027,-0.0218,-0.0217,-0.0216,-0.0126,-0.0124,-0.0123,-0.0053,-0.0052,-0.0052,-0.0051,0.0085,0.0089,0.0093,0,0,0,0,0,0,0,0,0,0,0,0,0,-0.0218,-0.0269,-0.0219,-0.0172,-0.0167,-0.0126,-0.0124,-0.0123,-0.0053,-0.0052,-0.0052,-0.0051,0.0084,0.0089,0.0094,0.0109,0,0,0.0108,0.0111,0,0,0,0,0,0,0,0,-0.0221,-0.0216,-0.018,-0.0175,-0.017,-0.0102,-0.0092,-0.0043,-0.0053,-0.0094,-0.0052,-0.0051,0.0026,0.0036,0.0054,0.0116,0.0122,0.0109,0.0112,0.0114,0.0115,0,0,0,0,0,0,0,-0.0225,-0.0219,-0.018,-0.0179,-0.0173,-0.0134,-0.0126,-0.0082,-0.0037,-0.0091,-0.0086,-0.0079,0.0029,0.0049,0.0057,0.0124,0.0109,0.0113,0.0116,0.0118,0.0249,0.025,0,0,0,0,0,0,-0.0244,-0.0223,-0.0183,-0.0177,-0.0196,-0.0134,-0.0125,-0.0123,-0.0038,-0.0026,-0.008,-0.0076,0.004,0.0052,0.0062,0.0107,0.0114,0.0118,0.0121,0.0249,0.025,0.025,0,0,0,0,0,0,-0.0246,-0.0242,-0.0186,-0.0199,-0.0189,-0.0134,-0.0132,-0.0121,-0.0101,-0.0031,-0.0017,-0.0071,0.0041,0.0056,0.0105,0.0113,0.0121,0.0125,0.0248,0.0249,0.025,0.0184,0,0,0,0,0,0,-0.0248,-0.0243,-0.0249,-0.0201,-0.019,-0.0173,-0.0132,-0.012,-0.0099,-0.0093,-0.0018,-0.0005,0.0043,0.0097,0.011,0.0119,0.0129,0.0247,0.0249,0.025,0.0185,0.0182,0.018,0,0,0,0,0,-0.025,-0.0267,-0.025,-0.0245,-0.02,-0.0174,-0.0165,-0.0121,-0.01,-0.0098,-0.004,-0.0007,0.0113,0.0101,0.0116,0.0127,0.0247,0.0248,0.0249,0.0186,0.0183,0.018,0,0,0,0,0,0,-0.0291,-0.026,-0.0241,-0.0247,-0.0217,-0.0163,-0.016,-0.0128,-0.0082,-0.0074,-0.0004,0.0014,0.0058,0.0102,0.0087,0.017,0.0187,0.0192,0.0135,0.0132,0.0129,0.0121,0.0133,0,0,0,0,0,-0.0306,-0.031,-0.0269,-0.0274,-0.0263,-0.0212,-0.0196,-0.0167,-0.012,-0.0099,-0.0045,0.0019,0.0074,0.0109,0.0157,0.0201,0.0244,0.0221,0.0218,0.0215,0.022,0.0291,0.0295,0.0254,0.0254,0.0254,0,0,-0.0323,-0.0307,-0.0308,-0.0283,-0.0256,-0.0248,-0.0201,-0.0185,-0.0167,-0.0092,-0.0054,0.0003,0.0081,0.013,0.0155,0.017,0.0246,0.0217,0.0213,0.022,0.0293,0.0297,0.03,0.0255,0.0255,0.0255,0,0,-0.037,-0.0347,-0.037,-0.0347,-0.0318,-0.0281,-0.0281,-0.023,-0.0197,-0.0156,-0.0092,-0.003,0.0046,0.0113,0.0156,0.0169,0.0221,0.0184,0.0174,0.0242,0.0246,0.025,0.0291,0.03,0.0192,0.0192,0.0192,0,-0.0394,-0.0411,-0.0372,-0.0382,-0.0366,-0.0302,-0.0311,-0.0269,-0.0206,-0.0171,-0.0155,-0.0017,0.0042,0.0128,0.0137,0.0163,0.0201,0.0175,0.0237,0.0242,0.0247,0.029,0.0299,0.0189,0.0189,0.019,0.019,0,-0.0454,-0.0462,-0.0472,-0.046,-0.0436,-0.0434,-0.0371,-0.0338,-0.0288,-0.0234,-0.0151,-0.0062,0.0027,0.0057,0.0103,0.0177,0.019,0.0214,0.0239,0.0247,0.0291,0.0302,0.0185,0.0186,0.0187,0.0188,0,0,-0.052,-0.0519,-0.0519,-0.0526,-0.0475,-0.0463,-0.0424,-0.0366,-0.033,-0.0254,-0.0197,-0.0087,-0.0027,0.0027,0.01,0.017,0.0232,0.0205,0.0211,0.0235,0.0367,0.0386,0.0401,0.0266,0.0268,0.027,0.0376,0,-0.0579,-0.0626,-0.0594,-0.0612,-0.0626,-0.0544,-0.0508,-0.0438,-0.0363,-0.0292,-0.0175,-0.0101,-0.004,0.0005,0.0086,0.02,0.0263,0.02,0.0367,0.0372,0.0379,0.0416,0.0375,0.0468,0.0387,0.0389,0.039,0,-0.0644,-0.0666,-0.0708,-0.0685,-0.0679,-0.0666,-0.0585,-0.0546,-0.0418,-0.0358,-0.025,-0.0159,-0.003,0.0007,0.0206,0.0163,0.0257,0.0339,0.0346,0.0399,0.0414,0.0453,0.0492,0.041,0.0409,0.0407,0.0406,0,-0.0716,-0.0736,-0.0774,-0.0768,-0.0733,-0.0716,-0.0677,-0.0565,-0.0523,-0.0395,-0.0346,-0.0185,-0.0101,0.0046,0.0227,0.0218,0.0434,0.0441,0.0544,0.0545,0.0564,0.0563,0.0569,0.0569,0.0569,0.0568,0.0568,0,-0.079,-0.0815,-0.0813,-0.0834,-0.0851,-0.0787,-0.0763,-0.0697,-0.0592,-0.0539,-0.0387,-0.0304,-0.0085,0.007,0.0219,0.0425,0.0431,0.0554,0.0586,0.0537,0.0534,0.0529,0.0522,0.0572,0.0571,0.0571,0.057,0,-0.0863,-0.0867,-0.0909,-0.0896,-0.0893,-0.0899,-0.084,-0.0813,-0.0705,-0.063,-0.0593,-0.0384,-0.0171,0.0044,0.0293,0.0413,0.0602,0.0666,0.0582,0.0604,0.0662,0.0651,0.0788,0.079,0.0791,0.0792,0.0794,0,-0.0907,-0.0943,-0.0968,-0.0995,-0.0994,-0.099,-0.0978,-0.0884,-0.0842,-0.0672,-0.0637,-0.0418,-0.0237,0.0137,0.039,0.0654,0.0655,0.0745,0.0728,0.0672,0.069,0.0677,0.0665,0.0717,0.0717,0.0717,0.0718,0,-0.0983,-0.099,-0.1025,-0.1085,-0.1102,-0.111,-0.108,-0.1067,-0.094,-0.0849,-0.068,-0.0523,-0.0147,0.0166,0.0501,0.0638,0.0701,0.0759,0.0753,0.0663,0.0614,0.0628,0.0617,0.072,0.072,0.072,0.072,0.072,-0.1026,-0.107,-0.1116,-0.1167,-0.1195,-0.1209,-0.1203,-0.1144,-0.1072,-0.0899,-0.0732,-0.0447,-0.0148,0.0357,0.0574,0.0767,0.0772,0.081,0.0806,0.0802,0.0771,0.0727,0.0847,0.0848,0.0848,0.0849,0.0849,0,-0.1079,-0.1126,-0.1189,-0.1243,-0.1282,-0.1274,-0.1253,-0.1205,-0.1116,-0.0911,-0.0705,-0.0334,0.003,0.0335,0.0657,0.0838,0.0807,0.0842,0.0776,0.0772,0.0769,0.0733,0.0802,0.0802,0.0803,0.0803,0,0,-0.1108,-0.1185,-0.1218,-0.1299,-0.1334,-0.1353,-0.1339,-0.1241,-0.1083,-0.0868,-0.063,-0.0308,0.0073,0.0291,0.0516,0.0674,0.066,0.0667,0.0685,0.0574,0.0569,0.0733,0.0672,0,0,0,0,0]}],[{"header":{"parameterUnit":"m.s-1","parameterCategory":2,"la1":30.2991,"la2":30.254,"lo1":-89.0895,"lo2":-89.0444,"dy":0.0017,"dx":0.0017,"nx":28,"ny":28,"refTime":"2024-04-29T21:00:00:Z","depth":"4","parameterNumber":2,"parameterNumberName":"U-component_of_CURRENTS"},"data":[0,0,0,0,0,0,0,0,0,0,0,0,0,0,0,0,0,0,0,0,0,0,0,0,0,0,0,0,0,0,0,0,0,0,0,0,0,0,0,0,0,0,0,0,0,0,0,0,0,0,0,0,0,0,0,0,0,0,-0.1515,-0.1516,0,-0.1561,-0.1562,-0.1562,-0.1593,-0.1593,-0.1593,-0.1594,-0.1603,-0.1603,-0.1603,0,0,0,0,0,0,0,0,0,0,0,0,0,-0.1448,-0.1449,-0.1515,-0.1516,-0.1516,-0.1561,-0.1562,-0.1562,-0.1593,-0.1593,-0.1594,-0.1594,-0.1603,-0.1603,-0.1603,0,0,0,0,0,0,0,0,0,0,0,0,0,-0.1483,-0.145,-0.1515,-0.1538,-0.1541,-0.1561,-0.1562,-0.1562,-0.1593,-0.1593,-0.1594,-0.1594,-0.1603,-0.1603,-0.1603,-0.1591,0,0,-0.1603,-0.1602,0,0,0,0,0,0,0,0,-0.1481,-0.1485,-0.1534,-0.1537,-0.154,-0.1573,-0.1542,-0.1571,-0.1592,-0.1571,-0.1594,-0.1594,-0.159,-0.1591,-0.1597,-0.1592,-0.1592,-0.1603,-0.1602,-0.1602,-0.1602,0,0,0,0,0,0,0,-0.1478,-0.1483,-0.1531,-0.1535,-0.1538,-0.1545,-0.155,-0.1547,-0.1575,-0.1573,-0.1576,-0.1584,-0.1592,-0.1597,-0.1597,-0.1592,-0.1603,-0.1602,-0.1602,-0.1602,-0.1656,-0.1658,0,0,0,0,0,0,-0.1476,-0.1481,-0.153,-0.1533,-0.1513,-0.1546,-0.1552,-0.1561,-0.1576,-0.158,-0.1583,-0.1585,-0.1597,-0.1597,-0.1598,-0.1657,-0.1602,-0.1602,-0.1602,-0.1655,-0.1657,-0.1658,0,0,0,0,0,0,-0.1474,-0.148,-0.1528,-0.1509,-0.1516,-0.1547,-0.1556,-0.1561,-0.1592,-0.1584,-0.1587,-0.1611,-0.1597,-0.1598,-0.1628,-0.1654,-0.1602,-0.1602,-0.1653,-0.1655,-0.1657,-0.1728,0,0,0,0,0,0,-0.1472,-0.1479,-0.1495,-0.1509,-0.1517,-0.1558,-0.1556,-0.1562,-0.1595,-0.1598,-0.1609,-0.1609,-0.1598,-0.1629,-0.1628,-0.1653,-0.1602,-0.1651,-0.1654,-0.1657,-0.1724,-0.1733,-0.174,0,0,0,0,0,-0.147,-0.1486,-0.1495,-0.1502,-0.1535,-0.156,-0.1565,-0.1586,-0.1596,-0.1615,-0.1631,-0.161,-0.1646,-0.163,-0.1629,-0.1655,-0.165,-0.1653,-0.1656,-0.172,-0.1731,-0.174,0,0,0,0,0,0,-0.1468,-0.1491,-0.1502,-0.1526,-0.155,-0.1566,-0.1587,-0.1601,-0.1628,-0.1638,-0.163,-0.1632,-0.1666,-0.1653,-0.1636,-0.168,-0.1644,-0.1647,-0.1693,-0.1703,-0.171,-0.17,-0.1602,0,0,0,0,0,-0.1474,-0.1491,-0.1516,-0.1537,-0.1551,-0.1574,-0.1591,-0.1608,-0.1629,-0.1643,-0.1654,-0.1665,-0.1674,-0.1685,-0.1688,-0.1713,-0.1691,-0.1729,-0.1737,-0.1744,-0.1735,-0.1735,-0.1742,-0.1669,-0.1669,-0.1669,0,0,-0.1479,-0.1494,-0.1505,-0.1538,-0.1557,-0.1583,-0.1586,-0.1621,-0.1648,-0.1637,-0.1685,-0.1693,-0.1687,-0.1719,-0.1732,-0.1715,-0.1757,-0.1748,-0.1754,-0.1741,-0.1739,-0.1746,-0.1752,-0.1672,-0.1671,-0.1671,0,0,-0.1486,-0.1513,-0.1527,-0.1553,-0.159,-0.1606,-0.1622,-0.1658,-0.1683,-0.1726,-0.1725,-0.175,-0.1775,-0.1773,-0.1773,-0.1825,-0.1798,-0.1838,-0.1872,-0.1872,-0.1878,-0.1882,-0.1875,-0.1879,-0.1844,-0.1844,-0.1844,0,-0.1492,-0.1511,-0.1537,-0.1561,-0.1585,-0.1619,-0.1644,-0.1674,-0.1719,-0.174,-0.1752,-0.1795,-0.1793,-0.1815,-0.1841,-0.1841,-0.184,-0.1836,-0.1882,-0.1885,-0.1889,-0.1881,-0.1883,-0.1848,-0.1848,-0.1847,-0.1847,0,-0.1502,-0.1531,-0.1545,-0.1583,-0.1617,-0.1646,-0.1689,-0.1731,-0.1769,-0.1793,-0.1843,-0.1853,-0.1874,-0.1886,-0.1882,-0.1912,-0.1904,-0.189,-0.1854,-0.19,-0.1889,-0.189,-0.1854,-0.1852,-0.1851,-0.185,0,0,-0.1472,-0.1537,-0.1544,-0.157,-0.1632,-0.1658,-0.1714,-0.1763,-0.1802,-0.1852,-0.1894,-0.1922,-0.1936,-0.1937,-0.1941,-0.1948,-0.1978,-0.1942,-0.194,-0.193,-0.1987,-0.1867,-0.1857,-0.1984,-0.1985,-0.1985,-0.1974,0,-0.1469,-0.1509,-0.155,-0.1601,-0.1625,-0.1686,-0.1737,-0.1793,-0.1843,-0.1897,-0.1918,-0.1958,-0.1954,-0.1978,-0.1986,-0.1981,-0.1984,-0.1982,-0.1947,-0.1946,-0.1829,-0.1854,-0.1987,-0.1974,-0.1975,-0.1975,-0.1975,0,-0.1453,-0.1486,-0.153,-0.1611,-0.1631,-0.1678,-0.1764,-0.1813,-0.1891,-0.1934,-0.1977,-0.2001,-0.2028,-0.2018,-0.2021,-0.2029,-0.2013,-0.2001,-0.2,-0.1858,-0.1827,-0.1916,-0.1977,-0.1977,-0.1976,-0.1976,-0.1976,0,-0.1393,-0.147,-0.1504,-0.1531,-0.1629,-0.1676,-0.1736,-0.1824,-0.187,-0.1956,-0.1997,-0.2035,-0.2059,-0.2053,-0.2039,-0.2042,-0.2032,-0.2023,-0.1894,-0.1886,-0.1967,-0.1962,-0.2011,-0.2011,-0.2011,-0.2011,-0.2012,0,-0.135,-0.1384,-0.1488,-0.1506,-0.1567,-0.1654,-0.1726,-0.1794,-0.189,-0.1932,-0.2009,-0.2035,-0.2073,-0.2075,-0.2054,-0.1972,-0.2039,-0.1891,-0.1871,-0.1999,-0.1998,-0.1968,-0.1963,-0.2011,-0.2011,-0.2011,-0.2011,0,-0.1264,-0.1333,-0.138,-0.1495,-0.1536,-0.158,-0.1711,-0.1761,-0.1866,-0.1923,-0.1953,-0.204,-0.2037,-0.205,-0.2035,-0.1969,-0.1916,-0.187,-0.2009,-0.1998,-0.1769,-0.1768,-0.1718,-0.1714,-0.171,-0.1707,-0.1704,0,-0.1216,-0.1229,-0.1347,-0.1387,-0.1443,-0.1529,-0.1591,-0.1725,-0.1768,-0.19,-0.1907,-0.1962,-0.1994,-0.1879,-0.1907,-0.1848,-0.1822,-0.179,-0.1772,-0.1752,-0.1738,-0.1743,-0.1747,-0.1698,-0.1697,-0.1696,-0.1695,0,-0.1117,-0.1171,-0.1214,-0.1288,-0.1364,-0.1428,-0.1521,-0.1544,-0.1683,-0.18,-0.1812,-0.1814,-0.1806,-0.1787,-0.1755,-0.1713,-0.181,-0.175,-0.1758,-0.174,-0.1727,-0.1718,-0.1726,-0.1682,-0.1684,-0.1685,-0.1686,0,-0.1044,-0.1052,-0.1118,-0.1173,-0.1261,-0.1295,-0.1365,-0.1424,-0.1487,-0.1645,-0.164,-0.1706,-0.1787,-0.1716,-0.1685,-0.1636,-0.1605,-0.1551,-0.1568,-0.1583,-0.1542,-0.1506,-0.1366,0,0,0,0,0,-0.096,-0.096,-0.1,-0.1058,-0.1139,-0.1182,-0.1303,-0.1378,-0.1518,-0.1485,-0.1561,-0.1551,-0.1528,-0.1563,-0.1476,-0.16,-0.1596,-0.1493,-0.1541,-0.161,-0.1625,-0.1587,0,0,0,0,0,0,-0.091,-0.0935,-0.0951,-0.0942,-0.0959,-0.1031,-0.11,-0.1201,-0.1192,-0.134,-0.1331,-0.1445,-0.1434,-0.1539,-0.1437,-0.1444,-0.1441,-0.1541,-0.1537,-0.1601,-0.1615,-0.1627,-0.1594,0,0,0,0,0]},{"header":{"parameterUnit":"m.s-1","parameterCategory":2,"la1":30.2991,"la2":30.254,"lo1":-89.0895,"lo2":-89.0444,"dy":0.0017,"dx":0.0017,"nx":28,"ny":28,"refTime":"2024-04-29T21:00:00:Z","depth":"4","parameterNumber":3,"parameterNumberName":"V-component_of_CURRENTS"},"data":[0,0,0,0,0,0,0,0,0,0,0,0,0,0,0,0,0,0,0,0,0,0,0,0,0,0,0,0,0,0,0,0,0,0,0,0,0,0,0,0,0,0,0,0,0,0,0,0,0,0,0,0,0,0,0,0,0,0,-0.0182,-0.0182,0,-0.0136,-0.0135,-0.0134,-0.0076,-0.0075,-0.0075,-0.0074,0.0016,0.0017,0.0019,0,0,0,0,0,0,0,0,0,0,0,0,0,-0.0198,-0.0198,-0.0182,-0.0182,-0.0181,-0.0136,-0.0135,-0.0134,-0.0076,-0.0075,-0.0075,-0.0074,0.0015,0.0017,0.0019,0,0,0,0,0,0,0,0,0,0,0,0,0,-0.0174,-0.0198,-0.0182,-0.0148,-0.0145,-0.0136,-0.0135,-0.0134,-0.0077,-0.0075,-0.0074,-0.0073,0.0015,0.0017,0.0019,0.0012,0,0,0.0027,0.0028,0,0,0,0,0,0,0,0,-0.0175,-0.0173,-0.0154,-0.0151,-0.0147,-0.0112,-0.0107,-0.0084,-0.0077,-0.0101,-0.0074,-0.0073,-0.0025,-0.0019,-0.0011,0.0016,0.002,0.0027,0.0029,0.003,0.0031,0,0,0,0,0,0,0,-0.0177,-0.0174,-0.0162,-0.0153,-0.0149,-0.0127,-0.0123,-0.0103,-0.0068,-0.0099,-0.0095,-0.0093,-0.0022,-0.0014,-0.0009,0.0021,0.0027,0.003,0.0031,0.0032,0.0041,0.004,0,0,0,0,0,0,-0.0189,-0.0176,-0.0164,-0.0161,-0.016,-0.0128,-0.0123,-0.0123,-0.0069,-0.006,-0.0094,-0.009,-0.0019,-0.0012,-0.0005,-0.0014,0.003,0.0032,0.0034,0.0042,0.0041,0.0039,0,0,0,0,0,0,-0.0189,-0.0188,-0.0166,-0.0168,-0.0164,-0.013,-0.013,-0.0123,-0.0113,-0.0066,-0.0056,-0.0091,-0.0017,-0.0009,0.0007,-0.001,0.0033,0.0036,0.0044,0.0042,0.004,-0.0029,0,0,0,0,0,0,-0.019,-0.0189,-0.0196,-0.017,-0.0165,-0.0172,-0.0131,-0.0123,-0.0114,-0.0109,-0.0061,-0.0051,-0.0016,0.0002,0.0009,-0.0005,0.0038,0.0045,0.0043,0.0041,-0.0025,-0.0033,-0.004,0,0,0,0,0,-0.0191,-0.021,-0.0196,-0.0195,-0.0175,-0.0173,-0.0169,-0.0138,-0.0116,-0.0123,-0.0087,-0.0053,-0.0008,0.0003,0.0012,-0.0003,0.0047,0.0044,0.0041,-0.0022,-0.0032,-0.004,0,0,0,0,0,0,-0.0219,-0.0206,-0.019,-0.0203,-0.0193,-0.0164,-0.017,-0.0147,-0.0125,-0.0118,-0.0066,-0.0055,-0.005,-0.0022,-0.001,-0.0009,0.0023,0.0022,-0.0027,-0.0036,-0.0043,-0.0033,0.004,0,0,0,0,0,-0.023,-0.0241,-0.0221,-0.0232,-0.0231,-0.0201,-0.0196,-0.0178,-0.0154,-0.0143,-0.0109,-0.0077,-0.0058,-0.0042,-0.0024,-0.002,0.0034,-0.0026,-0.0033,-0.004,-0.0028,0.0043,0.0044,0.003,0.003,0.003,0,0,-0.0244,-0.0238,-0.0244,-0.024,-0.0227,-0.0239,-0.0195,-0.0198,-0.0202,-0.0138,-0.0134,-0.0105,-0.0065,-0.0063,-0.0058,-0.0037,-0.0013,-0.0043,-0.0049,-0.0033,0.004,0.0042,0.0044,0.0028,0.0028,0.0029,0,0,-0.0288,-0.0273,-0.0301,-0.0298,-0.0291,-0.0272,-0.0277,-0.0255,-0.0239,-0.0236,-0.0192,-0.0167,-0.0143,-0.011,-0.0092,-0.0129,-0.0059,-0.0133,-0.0152,-0.0085,-0.0082,-0.0079,-0.0028,-0.0019,-0.013,-0.013,-0.013,0,-0.0306,-0.0332,-0.0309,-0.0335,-0.0334,-0.0292,-0.0317,-0.0302,-0.0277,-0.0259,-0.0247,-0.019,-0.0163,-0.0135,-0.0151,-0.0143,-0.0094,-0.0121,-0.0092,-0.0087,-0.0083,-0.003,-0.002,-0.0134,-0.0134,-0.0133,-0.0133,0,-0.037,-0.0388,-0.0405,-0.0418,-0.0415,-0.043,-0.0405,-0.0397,-0.037,-0.0341,-0.0311,-0.0267,-0.0222,-0.0222,-0.0197,-0.0161,-0.0134,-0.0112,-0.0064,-0.0085,-0.0029,-0.0017,-0.0139,-0.0138,-0.0137,-0.0136,0,0,-0.0415,-0.0446,-0.045,-0.0465,-0.0458,-0.0462,-0.0465,-0.0447,-0.043,-0.0401,-0.0371,-0.0341,-0.0292,-0.0268,-0.0228,-0.0173,-0.0117,-0.0133,-0.0128,-0.0073,0.0031,0.0009,0.002,-0.0081,-0.0079,-0.0077,0.0051,0,-0.047,-0.0534,-0.0528,-0.0571,-0.0594,-0.0554,-0.0554,-0.0526,-0.0485,-0.0447,-0.0383,-0.0346,-0.0317,-0.0289,-0.0232,-0.014,-0.0085,-0.0153,0.0036,0.0042,0.0033,0.0033,-0.0071,0.006,0.0063,0.0065,0.0067,0,-0.0531,-0.0563,-0.0625,-0.0634,-0.0639,-0.0654,-0.062,-0.0615,-0.0544,-0.0507,-0.0443,-0.0381,-0.0302,-0.0276,-0.0114,-0.0155,-0.007,0.0001,0.0008,0.0027,0.0043,0.0091,0.009,0.0088,0.0086,0.0085,0.0083,0,-0.0571,-0.0623,-0.0672,-0.068,-0.069,-0.0697,-0.0688,-0.0632,-0.0615,-0.0535,-0.0498,-0.0391,-0.0328,-0.0206,-0.0068,-0.0079,0.0117,0.0122,0.0183,0.0182,0.0196,0.0192,0.024,0.024,0.0239,0.0239,0.0239,0,-0.0622,-0.066,-0.0698,-0.0724,-0.0762,-0.0743,-0.0747,-0.0717,-0.066,-0.0627,-0.0529,-0.0468,-0.0302,-0.0174,-0.0059,0.01,0.0131,0.0188,0.0219,0.0159,0.0149,0.0204,0.0198,0.0244,0.0243,0.0242,0.0241,0,-0.0655,-0.0687,-0.0743,-0.0774,-0.0787,-0.0808,-0.0804,-0.0792,-0.0731,-0.0681,-0.0656,-0.0507,-0.0335,-0.0173,0.004,0.0111,0.0262,0.0308,0.0228,0.0251,0.0278,0.0267,0.0391,0.0391,0.0392,0.0392,0.0392,0,-0.0677,-0.0715,-0.0782,-0.0818,-0.0839,-0.0866,-0.0877,-0.0837,-0.0812,-0.0701,-0.0672,-0.0503,-0.0391,-0.0099,0.0057,0.0281,0.0301,0.0369,0.0322,0.0278,0.0297,0.0285,0.0273,0.0393,0.0393,0.0393,0.0393,0,-0.0707,-0.0737,-0.0779,-0.0859,-0.0898,-0.0928,-0.0934,-0.0921,-0.0853,-0.0808,-0.0657,-0.0501,-0.0306,-0.0095,0.0082,0.0235,0.0318,0.0373,0.0372,0.033,0.0282,0.0297,0.0286,0.0394,0.0394,0.0394,0.0394,0,-0.0718,-0.0754,-0.0817,-0.0878,-0.0938,-0.0963,-0.0965,-0.0915,-0.0878,-0.0749,-0.0701,-0.0485,-0.0354,-0.0118,0.0043,0.0194,0.0219,0.0244,0.0251,0.0252,0.0161,0.0076,0.0162,0,0,0,0,0,-0.0719,-0.0763,-0.0829,-0.0892,-0.0951,-0.0981,-0.0988,-0.0971,-0.0911,-0.081,-0.0749,-0.0564,-0.0297,-0.0172,-0.0022,0.0024,0.0223,0.0198,0.0249,0.0401,0.04,0.0313,0,0,0,0,0,0,-0.0722,-0.0788,-0.0824,-0.0888,-0.0931,-0.0981,-0.0987,-0.0951,-0.0876,-0.0798,-0.0645,-0.0553,-0.0287,-0.0377,-0.0024,0.0022,0.0067,0.0331,0.0334,0.0402,0.04,0.0399,0.0309,0,0,0,0,0]}]]